FW7994 Weather Reports


time (UTC)temp
C
wind
direction
speed
KPH
gust
KPH
rain 1hr
cm
rain 24hr
cm
rain mn
cm
humidity
%
barometer
mb
20260906072515 22 0.0 0.0 0.00 0.03 0.00 1 1009.7
20260906071535 22 0.0 0.0 0.00 0.03 0.00 1 1009.7
20260906070515 22 0.0 0.0 0.00 0.03 0.00 1 1009.6
20260906065515 22 0.0 1.6 0.00 0.03 0.00 1 1009.5
20260906064515 22 0.0 1.6 0.00 0.03 0.00 1 1009.7
20260906063517 22 0.0 6.4 0.00 0.03 0.00 1 1010.0
20260906062515 22 0.0 0.0 0.00 0.03 0.00 1 1010.1
20260906061516 22 0.0 0.0 0.00 0.03 0.00 1 1010.2
20260906060535 22 0.0 0.0 0.00 0.03 0.00 1 1010.2
20260906055555 22 0.0 0.0 0.00 0.03 0.00 1 1010.5
20260906054519 22 0.0 0.0 0.00 0.03 0.00 1 1010.8
20260906053515 22 0.0 0.0 0.00 0.03 0.00 1 1010.9
20260906052535 22 0.0 0.0 0.00 0.03 0.00 1 1010.9
20260906051515 22 0.0 0.0 0.00 0.03 0.00 1 1011.1
20260906050515 23 0.0 0.0 0.00 0.03 0.00 1 1011.2
20260906045515 23 0.0 0.0 0.00 0.03 0.00 1 1011.0
20260906044515 23 0.0 0.0 0.00 0.03 0.00 1 1011.0
20260906043515 23 0.0 0.0 0.00 0.03 0.00 1 1011.0
20260906042516 23 0.0 0.0 0.00 0.03 0.00 1 1011.1
20260906041535 23 0.0 0.0 0.00 0.03 0.00 1 1011.0
20260906040515 23 0.0 0.0 0.00 0.03 0.00 1 1011.1
20260906035516 23 0.0 0.0 0.00 0.03 0.03 1 1011.1
20260906034516 23 0.0 0.0 0.00 0.03 0.03 1 1011.0
20260906033516 23 0.0 0.0 0.00 0.03 0.03 1 1011.0
20260906032516 23 0.0 0.0 0.00 0.03 0.03 1 1010.8
20260906031516 23 0.0 0.0 0.00 0.03 0.03 1 1010.8
20260906030516 23 0.0 0.0 0.00 0.03 0.03 1 1010.8
20260906025516 23 0.0 0.0 0.00 0.03 0.03 1 1010.9
20260906024516 23 0.0 0.0 0.00 0.03 0.03 1 1010.8
20260906023516 24 0.0 0.0 0.00 0.03 0.03 1 1010.8
20260906022536 24 0.0 0.0 0.00 0.03 0.03 1 1010.7
20260906021516 24 0.0 0.0 0.00 0.03 0.03 1 1010.6
20260906020517 24 0.0 0.0 0.00 0.03 0.03 1 1010.5
20260906015536 24 0.0 0.0 0.00 0.03 0.03 1 1010.6
20260906014521 24 0.0 0.0 0.00 0.03 0.03 1 1010.7
20260906013516 25 0.0 0.0 0.00 0.03 0.03 1 1010.7
20260906012556 25 0.0 0.0 0.00 0.03 0.03 1 1010.6
20260906011516 25 0.0 0.0 0.00 0.03 0.03 1 1010.3
20260906010516 25 0.0 0.0 0.00 0.03 0.03 1 1010.1
20260906005516 25 0.0 0.0 0.00 0.03 0.03 1 1010.0
20260906004516 25 0.0 0.0 0.00 0.03 0.03 1 1010.1
20260906003535 25 0.0 0.0 0.00 0.03 0.03 1 1009.6
20260906002515 25 0.0 1.6 0.00 0.03 0.03 2 1009.6
20260906001535 26 0.0 0.0 0.00 0.03 0.03 5 1009.7
20260906000515 26 203 1.6 3.2 0.00 0.03 0.03 9 1009.5
20260905235536 26 0.0 0.0 0.00 0.03 0.03 11 1009.4
20260905234516 26 0.0 0.0 0.00 0.03 0.03 12 1009.7
20260905233516 26 0.0 0.0 0.00 0.03 0.03 16 1009.7
20260905232516 26 0.0 0.0 0.00 0.03 0.03 19 1009.6
20260905231536 26 0.0 0.0 0.00 0.03 0.03 22 1009.5
20260905230515 27 0.0 0.0 0.00 0.03 0.03 22 1009.5
20260905225516 27 0.0 0.0 0.00 0.03 0.03 27 1009.4
20260905224516 27 0.0 0.0 0.00 0.03 0.03 26 1009.8
20260905223515 27 0.0 0.0 0.00 0.03 0.03 28 1009.5
20260905222515 27 0.0 0.0 0.00 0.03 0.03 26 1009.4
20260905221515 27 0.0 0.0 0.00 0.03 0.03 21 1009.5
20260905220515 27 0.0 0.0 0.00 0.03 0.03 15 1009.8
20260905215516 26 0.0 0.0 0.03 0.03 0.03 21 1009.7
20260905214515 26 0.0 0.0 0.03 0.03 0.03 24 1009.4
20260905213516 26 0.0 1.6 0.03 0.03 0.03 12 1009.4
20260905212515 26 0.0 0.0 0.03 0.03 0.03 7 1009.2
20260905211515 26 0.0 3.2 0.03 0.03 0.03 11 1009.2
20260905210515 26 0.0 0.0 0.03 0.03 0.03 26 1009.0
20260905205516 26 0.0 1.6 0.00 0.00 0.00 36 1009.6
20260905204516 26 0.0 3.2 0.00 0.00 0.00 48 1009.9
20260905203516 28 135 1.6 6.4 0.00 0.00 0.00 60 1010.0
20260905202515 31 135 6.4 12.9 0.00 0.00 0.00 63 1009.8
20260905201515 33 0.0 0.0 0.00 0.00 0.00 60 1009.1
20260905200515 34 0.0 0.0 0.00 0.00 0.00 60 1009.4
20260905195515 35 0.0 0.0 0.00 0.00 0.00 59 1009.0
20260905194515 35 0.0 0.0 0.00 0.00 0.00 56 1009.6
20260905193515 36 0.0 0.0 0.00 0.00 0.00 52 1009.3
20260905192515 36 0.0 0.0 0.00 0.00 0.00 54 1009.2
20260905191515 37 0.0 0.0 0.00 0.00 0.00 48 1009.4
20260905190515 37 0.0 1.6 0.00 0.00 0.00 48 1009.3
20260905185535 36 0 1.6 6.4 0.00 0.00 0.00 53 1009.3
20260905184536 36 0.0 0.0 0.00 0.00 0.00 50 1009.5
20260905183515 37 0.0 6.4 0.00 0.00 0.00 49 1009.7
20260905182515 37 203 1.6 3.2 0.00 0.00 0.00 49 1009.7
20260905181515 37 0.0 3.2 0.00 0.00 0.00 49 1010.0
20260905180515 36 248 1.6 8.0 0.00 0.00 0.00 48 1010.2
20260905175515 36 0.0 1.6 0.00 0.00 0.00 50 1010.4
20260905174515 36 0.0 9.7 0.00 0.00 0.00 49 1010.6
20260905173517 36 0.0 1.6 0.00 0.00 0.00 53 1010.8
20260905172537 35 0.0 1.6 0.00 0.00 0.00 53 1010.8
20260905171517 35 203 1.6 6.4 0.00 0.00 0.00 54 1010.9
20260905170517 35 0.0 3.2 0.00 0.00 0.00 53 1011.1
20260905165517 35 0.0 1.6 0.00 0.00 0.00 56 1011.3
20260905164517 35 0.0 3.2 0.00 0.00 0.00 56 1011.6
20260905163517 35 0.0 1.6 0.00 0.00 0.00 57 1011.8
20260905162517 35 203 1.6 6.4 0.00 0.00 0.00 59 1011.8
20260905161517 34 293 3.2 11.3 0.00 0.00 0.00 59 1011.9
20260905160517 33 0.0 1.6 0.00 0.00 0.00 59 1012.0
20260905155517 33 0.0 4.8 0.00 0.00 0.00 60 1011.9
20260905154516 33 203 1.6 6.4 0.00 0.00 0.00 61 1012.1
20260905153537 32 0.0 3.2 0.00 0.00 0.00 61 1012.1
20260905152516 32 0.0 1.6 0.00 0.00 0.00 61 1012.2
20260905151516 31 0.0 1.6 0.00 0.00 0.00 61 1012.4
20260905150537 31 248 1.6 6.4 0.00 0.00 0.00 60 1012.5
20260905145516 30 135 1.6 8.0 0.00 0.00 0.00 59 1012.5
20260905144516 30 203 1.6 4.8 0.00 0.00 0.00 56 1012.5
20260905143516 29 180 1.6 8.0 0.00 0.00 0.00 48 1012.5
20260905142516 28 0.0 1.6 0.00 0.00 0.00 45 1012.6
20260905141516 28 0.0 3.2 0.00 0.00 0.00 38 1012.7
20260905140516 27 0.0 1.6 0.00 0.00 0.00 28 1012.7
20260905135516 27 0.0 1.6 0.00 0.00 0.00 22 1012.6
20260905134516 27 270 1.6 4.8 0.00 0.00 0.00 19 1012.6
20260905133516 26 0.0 1.6 0.00 0.00 0.00 7 1012.5
20260905132516 26 0.0 3.2 0.00 0.00 0.00 2 1012.6
20260905131516 26 0.0 3.2 0.00 0.00 0.00 1 1012.6
20260905130516 25 0.0 6.4 0.00 0.00 0.00 1 1012.8
20260905125516 25 0.0 3.2 0.00 0.00 0.00 1 1012.7
20260905124516 25 0.0 1.6 0.00 0.00 0.00 1 1012.8
20260905123516 24 0.0 0.0 0.00 0.00 0.00 1 1012.6
20260905122516 24 0.0 0.0 0.00 0.00 0.00 1 1012.5
20260905121536 23 0.0 3.2 0.00 0.00 0.00 1 1012.5
20260905120516 23 0.0 1.6 0.00 0.00 0.00 1 1012.5
20260905115518 23 0.0 1.6 0.00 0.00 0.00 1 1012.4
20260905114516 23 0.0 0.0 0.00 0.00 0.00 1 1012.4
20260905113516 23 0.0 0.0 0.00 0.00 0.00 1 1012.3
20260905112556 22 0.0 0.0 0.00 0.00 0.00 1 1012.1
20260905111516 22 0.0 0.0 0.00 0.00 0.00 1 1012.0
20260905110516 22 0.0 0.0 0.00 0.00 0.00 1 1012.0
20260905105516 22 0.0 0.0 0.00 0.00 0.00 1 1012.0
20260905104516 22 0.0 0.0 0.00 0.00 0.00 1 1011.9
20260905103516 22 0.0 0.0 0.00 0.00 0.00 1 1011.9
20260905102516 22 0.0 0.0 0.00 0.00 0.00 1 1011.8
20260905101516 22 0.0 0.0 0.00 0.00 0.00 1 1011.8
20260905100516 22 0.0 0.0 0.00 0.00 0.00 1 1011.8
20260905095516 22 0.0 0.0 0.00 0.00 0.00 1 1011.7
20260905094516 22 0.0 0.0 0.00 0.00 0.00 1 1011.8
20260905093516 23 0.0 0.0 0.00 0.00 0.00 1 1011.8
20260905092516 22 0.0 0.0 0.00 0.00 0.00 1 1011.8
20260905091516 23 0.0 0.0 0.00 0.00 0.00 1 1011.8
20260905090516 23 0.0 0.0 0.00 0.00 0.00 1 1011.9
20260905085536 23 0.0 0.0 0.00 0.00 0.00 1 1011.9
20260905084516 23 0.0 0.0 0.00 0.00 0.00 1 1011.9
20260905083536 23 0.0 0.0 0.00 0.00 0.00 1 1012.0
20260905082516 23 0.0 0.0 0.00 0.00 0.00 1 1011.9
20260905081516 23 0.0 0.0 0.00 0.00 0.00 1 1011.9
20260905080536 23 0.0 0.0 0.00 0.00 0.00 1 1012.0
20260905075515 23 0.0 0.0 0.00 0.00 0.00 1 1012.0
20260905074556 23 0.0 0.0 0.00 0.00 0.00 1 1012.1
20260905073516 23 0.0 0.0 0.00 0.00 0.00 1 1012.0